Location: Cakovec
(46.3910°N, 16.4410°E)
Time: 21:10:56
(UTC+02:00)

ISS - Visible Passes

Search period start: 09 May 2021 00:00
Search period end: 19 May 2021 00:00
Orbit: 418 x 421 km, 51.6° (Epoch: 09 May)

Date Brightness Start Highest point End Pass type
(mag) Time Alt. Az. Time Alt. Az. Time Alt. Az.
09 May -2.4 02:03:26 39° NNE 02:03:26 39° NNE 02:05:57 10° ENE visible
09 May -2.0 03:36:49 10° WNW 03:39:54 32° N 03:43:00 10° ENE visible
10 May -1.3 01:17:27 19° ENE 01:17:27 19° ENE 01:18:31 10° ENE visible
10 May -2.0 02:50:23 18° WNW 02:52:21 32° N 02:55:26 10° ENE visible
10 May -2.6 04:26:21 10° WNW 04:29:38 46° NNE 04:32:55 10° E visible
11 May -2.2 02:04:20 33° NNW 02:04:46 34° N 02:07:55 10° ENE visible
11 May -2.3 03:38:54 10° WNW 03:42:06 38° NNE 03:45:18 10° E visible
12 May -1.9 01:18:15 30° NNE 01:18:15 30° NNE 01:20:27 10° ENE visible
12 May -2.0 02:51:25 10° WNW 02:54:33 34° N 02:57:40 10° ENE visible
12 May -3.7 04:28:15 10° WNW 04:31:39 85° NNE 04:35:02 10° ESE visible
13 May -1.2 00:32:06 17° NE 00:32:06 17° NE 00:33:00 10° ENE visible
13 May -1.9 02:05:01 18° NW 02:06:58 32° N 02:10:04 10° ENE visible
13 May -3.2 03:40:50 10° WNW 03:44:12 61° NNE 03:47:33 10° ESE visible
14 May -1.9 01:18:37 28° NNW 01:19:23 32° N 01:22:29 10° ENE visible
14 May -2.7 02:53:24 10° WNW 02:56:41 46° NNE 02:59:58 10° E visible
14 May -3.3 04:30:17 10° WNW 04:33:30 41° SW 04:36:42 10° SE visible
14 May -2.1 21:16:14 10° S 21:18:20 16° SE 21:20:27 10° E visible
14 May -3.9 22:51:22 10° WSW 22:54:44 89° S 22:58:08 10° ENE visible
15 May -2.1 00:28:42 10° WNW 00:31:49 34° N 00:34:58 10° ENE visible
15 May -2.3 02:05:57 10° WNW 02:09:09 38° NNE 02:12:21 10° E visible
15 May -3.8 03:42:46 10° WNW 03:46:07 65° SSW 03:49:28 10° SE visible
15 May -3.8 22:04:01 10° SW 22:07:19 59° SSE 22:10:39 10° ENE visible
15 May -2.4 23:41:03 10° W 23:44:16 39° NNW 23:47:28 10° ENE visible
16 May -2.0 01:18:27 10° WNW 01:21:34 34° N 01:24:42 10° ENE visible
16 May -3.8 02:55:18 10° WNW 02:58:41 86° NNE 03:02:04 10° ESE visible
16 May -2.2 04:32:49 10° W 04:35:08 17° SW 04:37:25 10° S visible
16 May -3.3 21:16:48 10° SSW 21:19:57 38° SE 21:23:06 10° ENE visible
16 May -2.8 22:53:26 10° W 22:56:44 48° NNW 23:00:01 10° ENE visible
17 May -1.9 00:30:55 10° WNW 00:34:00 32° N 00:37:05 10° ENE visible
17 May -3.3 02:07:52 10° WNW 02:11:13 61° NNE 02:14:33 10° ESE visible
17 May -2.8 03:45:03 11° W 03:47:50 26° SW 03:50:44 10° SSE visible
17 May -3.3 22:05:52 10° WSW 22:09:13 65° NNW 22:12:34 10° ENE visible
17 May -1.9 23:43:20 10° WNW 23:46:25 32° N 23:49:30 10° ENE visible
18 May -2.4 01:20:25 10° WNW 01:22:53 37° NNW 01:22:53 37° NNW visible
18 May -3.8 21:18:22 10° WSW 21:21:45 89° SSE 21:25:08 10° ENE visible
18 May -2.0 22:55:42 10° WNW 22:58:50 34° N 23:01:58 10° ENE visible
